| time (UTC) | temp F | wind direction | speed MPH | gust MPH | rain 1hr in | rain 24hr in | rain mn in | humidity % | barometer mb |
| 20260506014044 | 56 | 316 | 9.0 | 18.0 | 0.00 | 0.00 | 0.00 | 56 | 1015.3 |
| 20260506013546 | 56 | 317 | 8.0 | 18.0 | 0.00 | 0.00 | 0.00 | 55 | 1015.2 |
| 20260506013105 | 56 | 316 | 9.0 | 20.0 | 0.00 | 0.00 | 0.00 | 57 | 1015.2 |
| 20260506012535 | 56 | 342 | 10.0 | 20.0 | 0.00 | 0.00 | 0.00 | 58 | 1015.2 |
| 20260506012032 | 56 | 344 | 13.0 | 19.0 | 0.00 | 0.00 | 0.00 | 58 | 1015.2 |
| 20260506011615 | 56 | 324 | 11.0 | 19.0 | 0.00 | 0.00 | 0.00 | 57 | 1015.2 |
| 20260506011032 | 57 | 320 | 10.0 | 20.0 | 0.00 | 0.00 | 0.00 | 58 | 1015.2 |
| 20260506010519 | 57 | 318 | 9.0 | 20.0 | 0.00 | 0.00 | 0.00 | 58 | 1015.2 |
| 20260506010153 | 57 | 348 | 9.0 | 18.0 | 0.00 | 0.00 | 0.00 | 57 | 1015.3 |
| 20260506005522 | 57 | 323 | 11.0 | 20.0 | 0.00 | 0.00 | 0.00 | 57 | 1015.2 |
| 20260506005030 | 57 | 313 | 13.0 | 20.0 | 0.00 | 0.00 | 0.00 | 56 | 1015.2 |
| 20260506004555 | 57 | 321 | 10.0 | 20.0 | 0.00 | 0.00 | 0.00 | 57 | 1015.0 |
| 20260506004022 | 58 | 342 | 10.0 | 17.0 | 0.00 | 0.00 | 0.00 | 58 | 1015.2 |
| 20260506003522 | 58 | 313 | 7.0 | 17.0 | 0.00 | 0.00 | 0.00 | 59 | 1015.1 |
| 20260506003137 | 58 | 315 | 8.0 | 18.0 | 0.00 | 0.00 | 0.00 | 58 | 1015.2 |
| 20260506002546 | 58 | 321 | 11.0 | 18.0 | 0.00 | 0.00 | 0.00 | 56 | 1015.2 |
| 20260506002037 | 58 | 326 | 8.0 | 17.0 | 0.00 | 0.00 | 0.00 | 57 | 1015.2 |
| 20260506001631 | 58 | 283 | 8.0 | 17.0 | 0.00 | 0.00 | 0.00 | 57 | 1015.2 |
| 20260506001039 | 59 | 304 | 11.0 | 21.0 | 0.00 | 0.00 | 0.00 | 58 | 1015.3 |
| 20260506000542 | 59 | 327 | 10.0 | 19.0 | 0.00 | 0.00 | 0.00 | 58 | 1015.2 |
| 20260506000134 | 59 | 340 | 8.0 | 17.0 | 0.00 | 0.00 | 0.00 | 56 | 1015.2 |
| 20260505235530 | 59 | 332 | 9.0 | 18.0 | 0.00 | 0.00 | 0.00 | 57 | 1015.1 |
| 20260505235048 | 59 | 305 | 7.0 | 18.0 | 0.00 | 0.00 | 0.00 | 59 | 1015.1 |
| 20260505234611 | 58 | 330 | 10.0 | 18.0 | 0.00 | 0.00 | 0.00 | 59 | 1015.1 |
| 20260505234019 | 58 | 296 | 11.0 | 17.0 | 0.00 | 0.00 | 0.00 | 60 | 1015.0 |
| 20260505233529 | 59 | 286 | 11.0 | 17.0 | 0.00 | 0.00 | 0.00 | 59 | 1015.2 |
| 20260505233131 | 60 | 324 | 9.0 | 15.0 | 0.00 | 0.00 | 0.00 | 57 | 1015.2 |
| 20260505232542 | 60 | 327 | 8.0 | 14.0 | 0.00 | 0.00 | 0.00 | 57 | 1015.2 |
| 20260505232028 | 61 | 289 | 5.0 | 13.0 | 0.00 | 0.00 | 0.00 | 57 | 1015.1 |
| 20260505231616 | 61 | 288 | 6.0 | 13.0 | 0.00 | 0.00 | 0.00 | 55 | 1015.1 |
| 20260505231038 | 61 | 352 | 6.0 | 13.0 | 0.00 | 0.00 | 0.00 | 54 | 1015.1 |
| 20260505230518 | 61 | 314 | 5.0 | 16.0 | 0.00 | 0.00 | 0.00 | 56 | 1015.0 |
| 20260505230118 | 60 | 321 | 6.0 | 16.0 | 0.00 | 0.00 | 0.00 | 56 | 1014.9 |
| 20260505225536 | 61 | 328 | 5.0 | 11.0 | 0.00 | 0.00 | 0.00 | 55 | 1014.9 |
| 20260505225030 | 61 | 22 | 4.0 | 8.0 | 0.00 | 0.00 | 0.00 | 56 | 1015.0 |
| 20260505224641 | 61 | 9 | 4.0 | 16.0 | 0.00 | 0.00 | 0.00 | 57 | 1015.0 |
| 20260505224016 | 60 | 316 | 3.0 | 16.0 | 0.00 | 0.00 | 0.00 | 56 | 1015.0 |
| 20260505223513 | 61 | 321 | 6.0 | 15.0 | 0.00 | 0.00 | 0.00 | 55 | 1014.7 |
| 20260505223109 | 61 | 13 | 6.0 | 14.0 | 0.00 | 0.00 | 0.00 | 55 | 1014.9 |
| 20260505222605 | 61 | 320 | 7.0 | 18.0 | 0.00 | 0.00 | 0.00 | 56 | 1015.0 |
| 20260505222034 | 61 | 318 | 8.0 | 18.0 | 0.00 | 0.00 | 0.00 | 55 | 1014.9 |
| 20260505221623 | 62 | 347 | 4.0 | 13.0 | 0.00 | 0.00 | 0.00 | 55 | 1015.1 |
| 20260505221109 | 63 | 318 | 5.0 | 13.0 | 0.00 | 0.00 | 0.00 | 54 | 1015.2 |
| 20260505220607 | 64 | 328 | 6.0 | 13.0 | 0.00 | 0.00 | 0.00 | 53 | 1015.1 |
| 20260505220054 | 65 | 5 | 3.0 | 5.0 | 0.00 | 0.00 | 0.00 | 56 | 1015.0 |
| 20260505215535 | 65 | 33 | 1.0 | 7.0 | 0.00 | 0.00 | 0.00 | 58 | 1015.0 |
| 20260505215034 | 64 | 326 | 2.0 | 7.0 | 0.00 | 0.00 | 0.00 | 52 | 1014.9 |
| 20260505214609 | 65 | 135 | 2.0 | 4.0 | 0.00 | 0.00 | 0.00 | 59 | 1014.9 |
| 20260505214113 | 65 | 19 | 2.0 | 4.0 | 0.00 | 0.00 | 0.00 | 60 | 1014.8 |
| 20260505213535 | 64 | 33 | 2.0 | 5.0 | 0.00 | 0.00 | 0.00 | 60 | 1014.7 |
| 20260505213106 | 64 | 77 | 2.0 | 5.0 | 0.00 | 0.00 | 0.00 | 61 | 1014.7 |
| 20260505212556 | 65 | 38 | 3.0 | 5.0 | 0.00 | 0.00 | 0.00 | 61 | 1014.6 |
| 20260505212037 | 65 | 38 | 2.0 | 6.0 | 0.00 | 0.00 | 0.00 | 59 | 1014.6 |
| 20260505211535 | 65 | 13 | 1.0 | 9.0 | 0.00 | 0.00 | 0.00 | 59 | 1014.6 |
| 20260505211031 | 65 | 26 | 4.0 | 9.0 | 0.00 | 0.00 | 0.00 | 58 | 1014.5 |
| 20260505210521 | 65 | 67 | 2.0 | 9.0 | 0.00 | 0.00 | 0.00 | 59 | 1014.5 |
| 20260505210130 | 66 | 72 | 3.0 | 9.0 | 0.00 | 0.00 | 0.00 | 57 | 1014.3 |
| 20260505205530 | 66 | 39 | 3.0 | 9.0 | 0.00 | 0.00 | 0.00 | 55 | 1014.3 |
| 20260505205041 | 66 | 53 | 3.0 | 9.0 | 0.00 | 0.00 | 0.00 | 55 | 1014.3 |
| 20260505204532 | 66 | 40 | 4.0 | 9.0 | 0.00 | 0.00 | 0.00 | 56 | 1014.2 |
| 20260505204034 | 66 | 45 | 3.0 | 6.0 | 0.00 | 0.00 | 0.00 | 59 | 1014.1 |
| 20260505203542 | 66 | 59 | 2.0 | 5.0 | 0.00 | 0.00 | 0.00 | 57 | 1014.2 |
| 20260505203138 | 66 | 340 | 2.0 | 6.0 | 0.00 | 0.00 | 0.00 | 53 | 1014.2 |
| 20260505202539 | 65 | 317 | 2.0 | 8.0 | 0.00 | 0.00 | 0.00 | 53 | 1014.0 |
| 20260505202021 | 65 | 274 | 4.0 | 8.0 | 0.00 | 0.00 | 0.00 | 52 | 1014.0 |
| 20260505201548 | 65 | 277 | 3.0 | 6.0 | 0.00 | 0.00 | 0.00 | 52 | 1013.9 |
| 20260505201038 | 65 | 325 | 4.0 | 6.0 | 0.00 | 0.00 | 0.00 | 53 | 1013.9 |
| 20260505200535 | 65 | 11 | 2.0 | 7.0 | 0.00 | 0.00 | 0.00 | 53 | 1014.0 |
| 20260505200059 | 65 | 352 | 3.0 | 11.0 | 0.00 | 0.00 | 0.00 | 53 | 1014.0 |
| 20260505195538 | 65 | 246 | 6.0 | 11.0 | 0.00 | 0.00 | 0.00 | 52 | 1014.1 |
| 20260505195038 | 65 | 89 | 2.0 | 8.0 | 0.00 | 0.00 | 0.00 | 54 | 1014.0 |
| 20260505194631 | 65 | 195 | 3.0 | 8.0 | 0.00 | 0.00 | 0.00 | 52 | 1014.0 |
| 20260505194034 | 64 | 211 | 2.0 | 8.0 | 0.00 | 0.00 | 0.00 | 55 | 1014.0 |
| 20260505193531 | 63 | 222 | 3.0 | 8.0 | 0.00 | 0.00 | 0.00 | 55 | 1013.9 |
| 20260505193135 | 63 | 327 | 3.0 | 10.0 | 0.00 | 0.00 | 0.00 | 58 | 1013.7 |
| 20260505192543 | 62 | 299 | 4.0 | 11.0 | 0.00 | 0.00 | 0.00 | 59 | 1013.6 |
| 20260505192107 | 62 | 338 | 5.0 | 11.0 | 0.00 | 0.00 | 0.00 | 60 | 1013.6 |
| 20260505191632 | 62 | 319 | 5.0 | 11.0 | 0.00 | 0.00 | 0.00 | 59 | 1013.8 |
| 20260505191021 | 62 | 300 | 5.0 | 11.0 | 0.00 | 0.00 | 0.00 | 60 | 1013.7 |
| 20260505190610 | 62 | 315 | 4.0 | 8.0 | 0.00 | 0.00 | 0.00 | 61 | 1013.7 |
| 20260505190103 | 62 | 305 | 4.0 | 8.0 | 0.00 | 0.00 | 0.00 | 61 | 1013.6 |
| 20260505185520 | 61 | 217 | 1.0 | 10.0 | 0.00 | 0.00 | 0.00 | 63 | 1013.6 |
| 20260505185035 | 62 | 140 | 4.0 | 10.0 | 0.00 | 0.00 | 0.00 | 61 | 1013.6 |
| 20260505184627 | 61 | 315 | 2.0 | 8.0 | 0.00 | 0.00 | 0.00 | 63 | 1013.5 |
| 20260505184021 | 61 | 327 | 3.0 | 8.0 | 0.00 | 0.00 | 0.00 | 62 | 1013.5 |
| 20260505183616 | 61 | 15 | 4.0 | 8.0 | 0.00 | 0.00 | 0.00 | 61 | 1013.5 |
| 20260505183127 | 61 | 360 | 3.0 | 4.0 | 0.00 | 0.00 | 0.00 | 61 | 1013.6 |
| 20260505182525 | 61 | 360 | 2.0 | 4.0 | 0.00 | 0.00 | 0.00 | 62 | 1013.5 |
| 20260505182048 | 62 | 5 | 2.0 | 3.0 | 0.00 | 0.00 | 0.00 | 60 | 1013.4 |
| 20260505181635 | 62 | 56 | 1.0 | 3.0 | 0.00 | 0.00 | 0.00 | 60 | 1013.4 |
| 20260505181035 | 62 | 31 | 1.0 | 3.0 | 0.00 | 0.00 | 0.00 | 61 | 1013.5 |
| 20260505180533 | 61 | 57 | 1.0 | 3.0 | 0.00 | 0.00 | 0.00 | 61 | 1013.5 |
| 20260505180151 | 61 | 60 | 1.0 | 3.0 | 0.00 | 0.00 | 0.00 | 62 | 1013.3 |
| 20260505175530 | 61 | 47 | 2.0 | 4.0 | 0.00 | 0.00 | 0.00 | 61 | 1013.3 |
| 20260505175017 | 61 | 33 | 3.0 | 4.0 | 0.00 | 0.00 | 0.00 | 62 | 1013.2 |
| 20260505174538 | 60 | 39 | 2.0 | 4.0 | 0.00 | 0.00 | 0.00 | 63 | 1013.2 |
| 20260505174041 | 60 | 61 | 1.0 | 5.0 | 0.00 | 0.00 | 0.00 | 62 | 1013.2 |
| 20260505173620 | 60 | 59 | 3.0 | 5.0 | 0.00 | 0.00 | 0.00 | 63 | 1013.2 |
| 20260505173107 | 59 | 36 | 2.0 | 4.0 | 0.00 | 0.00 | 0.00 | 65 | 1013.2 |
| 20260505172518 | 59 | 21 | 2.0 | 5.0 | 0.00 | 0.00 | 0.00 | 65 | 1013.1 |
| 20260505172019 | 59 | 53 | 2.0 | 5.0 | 0.00 | 0.00 | 0.00 | 67 | 1013.1 |
| 20260505171619 | 59 | 20 | 3.0 | 5.0 | 0.00 | 0.00 | 0.00 | 68 | 1013.0 |
| 20260505171046 | 59 | 32 | 3.0 | 5.0 | 0.00 | 0.00 | 0.00 | 68 | 1012.9 |
| 20260505170525 | 58 | 51 | 2.0 | 4.0 | 0.00 | 0.00 | 0.00 | 69 | 1012.9 |
| 20260505170124 | 58 | 62 | 2.0 | 4.0 | 0.00 | 0.00 | 0.00 | 69 | 1013.0 |
| 20260505165525 | 58 | 39 | 2.0 | 4.0 | 0.00 | 0.00 | 0.00 | 68 | 1013.0 |
| 20260505165106 | 59 | 44 | 2.0 | 5.0 | 0.00 | 0.00 | 0.00 | 69 | 1013.0 |
| 20260505164603 | 58 | 58 | 3.0 | 4.0 | 0.00 | 0.00 | 0.00 | 69 | 1013.0 |
| 20260505164026 | 58 | 51 | 2.0 | 4.0 | 0.00 | 0.00 | 0.00 | 71 | 1013.0 |
| 20260505163525 | 57 | 38 | 2.0 | 4.0 | 0.00 | 0.00 | 0.00 | 70 | 1012.9 |
| 20260505163058 | 57 | 11 | 1.0 | 3.0 | 0.00 | 0.00 | 0.00 | 70 | 1012.9 |
| 20260505162558 | 57 | 5 | 1.0 | 3.0 | 0.00 | 0.00 | 0.00 | 71 | 1012.9 |
| 20260505162022 | 57 | 44 | 1.0 | 3.0 | 0.00 | 0.00 | 0.00 | 71 | 1012.8 |
| 20260505161613 | 57 | 64 | 2.0 | 3.0 | 0.00 | 0.00 | 0.00 | 72 | 1012.7 |
| 20260505161030 | 56 | 44 | 1.0 | 3.0 | 0.00 | 0.00 | 0.00 | 73 | 1012.8 |
| 20260505160616 | 56 | 25 | 1.0 | 3.0 | 0.00 | 0.00 | 0.00 | 74 | 1012.7 |
| 20260505153053 | 55 | 19 | 1.0 | 3.0 | 0.00 | 0.00 | 0.00 | 75 | 1012.2 |
| 20260505152528 | 55 | 36 | 1.0 | 3.0 | 0.00 | 0.00 | 0.00 | 74 | 1012.3 |
| 20260505152045 | 55 | 40 | 1.0 | 4.0 | 0.00 | 0.00 | 0.00 | 74 | 1012.2 |
| 20260505151640 | 55 | 154 | 1.0 | 4.0 | 0.00 | 0.00 | 0.00 | 74 | 1012.1 |
| 20260505151038 | 56 | 37 | 2.0 | 3.0 | 0.00 | 0.00 | 0.00 | 74 | 1012.0 |
| 20260505150536 | 55 | 80 | 1.0 | 3.0 | 0.00 | 0.00 | 0.00 | 73 | 1012.0 |
| 20260505140541 | 53 | 5 | 0.0 | 2.0 | 0.00 | 0.00 | 0.00 | 79 | 1011.7 |
| 20260505140121 | 53 | 5 | 0.0 | 2.0 | 0.00 | 0.00 | 0.00 | 78 | 1011.6 |
| 20260505130200 | 50 | 169 | 2.0 | 5.0 | 0.00 | 0.00 | 0.00 | 75 | 1011.3 |
| 20260505124645 | 50 | 115 | 2.0 | 4.0 | 0.00 | 0.00 | 0.00 | 77 | 1011.2 |
| 20260505124046 | 51 | 121 | 2.0 | 6.0 | 0.00 | 0.00 | 0.00 | 77 | 1011.2 |
| 20260505123536 | 51 | 104 | 3.0 | 6.0 | 0.00 | 0.00 | 0.00 | 76 | 1011.2 |
| 20260505123111 | 51 | 137 | 1.0 | 3.0 | 0.00 | 0.00 | 0.00 | 75 | 1011.2 |
| 20260505122526 | 51 | 105 | 1.0 | 3.0 | 0.00 | 0.00 | 0.00 | 74 | 1011.2 |
| 20260505122057 | 51 | 119 | 1.0 | 3.0 | 0.00 | 0.00 | 0.00 | 74 | 1011.2 |
| 20260505121618 | 50 | 127 | 1.0 | 3.0 | 0.00 | 0.00 | 0.00 | 75 | 1011.2 |
| 20260505121025 | 50 | 123 | 1.0 | 3.0 | 0.00 | 0.00 | 0.00 | 76 | 1011.2 |
| 20260505120534 | 50 | 134 | 2.0 | 3.0 | 0.00 | 0.00 | 0.00 | 77 | 1011.2 |
| 20260505120127 | 50 | 124 | 1.0 | 3.0 | 0.00 | 0.00 | 0.00 | 76 | 1011.2 |
| 20260505115530 | 51 | 158 | 0.0 | 3.0 | 0.00 | 0.00 | 0.00 | 75 | 1011.2 |
| 20260505115016 | 51 | 158 | 1.0 | 3.0 | 0.00 | 0.00 | 0.00 | 77 | 1011.1 |
| 20260505114627 | 51 | 89 | 1.0 | 6.0 | 0.00 | 0.00 | 0.00 | 76 | 1011.2 |
| 20260505114037 | 51 | 130 | 1.0 | 6.0 | 0.00 | 0.00 | 0.00 | 77 | 1011.0 |
| 20260505113533 | 51 | 120 | 2.0 | 4.0 | 0.00 | 0.00 | 0.00 | 78 | 1011.2 |
| 20260505113120 | 51 | 110 | 2.0 | 4.0 | 0.00 | 0.00 | 0.00 | 76 | 1011.2 |
| 20260505112533 | 51 | 102 | 1.0 | 3.0 | 0.00 | 0.00 | 0.00 | 75 | 1011.1 |
| 20260505112048 | 52 | 104 | 1.0 | 4.0 | 0.00 | 0.00 | 0.00 | 74 | 1011.0 |
| 20260505111601 | 52 | 121 | 2.0 | 4.0 | 0.00 | 0.00 | 0.00 | 75 | 1011.0 |
| 20260505111027 | 52 | 119 | 1.0 | 3.0 | 0.00 | 0.00 | 0.00 | 72 | 1010.9 |
| 20260505110540 | 52 | 137 | 1.0 | 6.0 | 0.00 | 0.00 | 0.00 | 72 | 1010.9 |
| 20260505102040 | 54 | 130 | 1.0 | 4.0 | 0.00 | 0.00 | 0.00 | 69 | 1010.9 |
| 20260505101608 | 54 | 134 | 2.0 | 4.0 | 0.00 | 0.00 | 0.00 | 69 | 1011.0 |
| 20260505101100 | 54 | 139 | 2.0 | 7.0 | 0.00 | 0.00 | 0.00 | 70 | 1010.9 |
| 20260505100525 | 54 | 135 | 3.0 | 7.0 | 0.00 | 0.00 | 0.00 | 71 | 1011.0 |
| 20260505100101 | 54 | 147 | 2.0 | 5.0 | 0.00 | 0.00 | 0.00 | 71 | 1011.0 |
| 20260505095548 | 54 | 133 | 1.0 | 4.0 | 0.00 | 0.00 | 0.00 | 70 | 1011.0 |
| 20260505095016 | 54 | 132 | 2.0 | 4.0 | 0.00 | 0.00 | 0.00 | 70 | 1011.0 |
| 20260505094626 | 54 | 113 | 1.0 | 4.0 | 0.00 | 0.00 | 0.00 | 68 | 1011.0 |
| 20260505094022 | 55 | 139 | 1.0 | 3.0 | 0.00 | 0.00 | 0.00 | 66 | 1011.2 |
| 20260505093548 | 56 | 134 | 1.0 | 6.0 | 0.00 | 0.00 | 0.00 | 65 | 1011.1 |
| 20260505093117 | 56 | 100 | 2.0 | 6.0 | 0.00 | 0.00 | 0.00 | 65 | 1011.1 |
| 20260505092603 | 56 | 101 | 3.0 | 8.0 | 0.00 | 0.00 | 0.00 | 65 | 1011.0 |
| 20260505092108 | 56 | 138 | 3.0 | 8.0 | 0.00 | 0.00 | 0.00 | 65 | 1010.9 |
| 20260505091623 | 55 | 127 | 2.0 | 4.0 | 0.00 | 0.00 | 0.00 | 67 | 1010.9 |
| 20260505091049 | 56 | 130 | 2.0 | 4.0 | 0.00 | 0.00 | 0.00 | 67 | 1010.8 |
| 20260505090612 | 55 | 138 | 2.0 | 4.0 | 0.00 | 0.00 | 0.00 | 68 | 1010.8 |
| 20260505090113 | 55 | 125 | 2.0 | 5.0 | 0.00 | 0.00 | 0.00 | 68 | 1010.8 |
| 20260505085600 | 54 | 101 | 2.0 | 4.0 | 0.00 | 0.00 | 0.00 | 70 | 1010.8 |
| 20260505085109 | 54 | 136 | 1.0 | 4.0 | 0.00 | 0.00 | 0.00 | 72 | 1010.8 |
| 20260505084615 | 54 | 130 | 2.0 | 4.0 | 0.00 | 0.00 | 0.00 | 71 | 1010.9 |
| 20260505084056 | 54 | 144 | 2.0 | 5.0 | 0.00 | 0.00 | 0.00 | 72 | 1010.9 |
| 20260505083557 | 54 | 126 | 2.0 | 3.0 | 0.00 | 0.00 | 0.00 | 72 | 1011.0 |
| 20260505083120 | 55 | 103 | 2.0 | 3.0 | 0.00 | 0.00 | 0.00 | 70 | 1011.0 |
| 20260505082550 | 55 | 142 | 1.0 | 4.0 | 0.00 | 0.00 | 0.00 | 70 | 1010.9 |
| 20260505082116 | 56 | 118 | 1.0 | 6.0 | 0.00 | 0.00 | 0.00 | 69 | 1010.9 |
| 20260505081629 | 56 | 127 | 2.0 | 7.0 | 0.00 | 0.00 | 0.00 | 69 | 1010.9 |
| 20260505081058 | 57 | 113 | 2.0 | 8.0 | 0.00 | 0.00 | 0.00 | 67 | 1010.9 |
| 20260505080610 | 57 | 130 | 2.0 | 8.0 | 0.00 | 0.00 | 0.00 | 66 | 1011.0 |
| 20260505080109 | 58 | 142 | 3.0 | 7.0 | 0.00 | 0.00 | 0.00 | 64 | 1010.9 |
| 20260505075602 | 58 | 130 | 3.0 | 8.0 | 0.00 | 0.00 | 0.00 | 63 | 1010.8 |
| 20260505075112 | 58 | 136 | 4.0 | 8.0 | 0.00 | 0.00 | 0.00 | 64 | 1010.8 |
| 20260505074610 | 58 | 132 | 4.0 | 7.0 | 0.00 | 0.00 | 0.00 | 63 | 1010.7 |
| 20260505074106 | 58 | 109 | 3.0 | 5.0 | 0.00 | 0.00 | 0.00 | 61 | 1010.8 |
| 20260505073548 | 58 | 118 | 2.0 | 4.0 | 0.00 | 0.00 | 0.00 | 60 | 1010.8 |
| 20260505073130 | 58 | 138 | 2.0 | 5.0 | 0.00 | 0.00 | 0.00 | 61 | 1010.8 |
| 20260505072603 | 57 | 148 | 2.0 | 5.0 | 0.00 | 0.00 | 0.00 | 62 | 1011.0 |
| 20260505072017 | 56 | 148 | 2.0 | 4.0 | 0.00 | 0.00 | 0.00 | 67 | 1010.9 |
| 20260505071550 | 55 | 128 | 1.0 | 5.0 | 0.00 | 0.00 | 0.00 | 69 | 1010.8 |
| 20260505071045 | 55 | 159 | 1.0 | 2.0 | 0.00 | 0.00 | 0.00 | 68 | 1010.8 |
| 20260505070547 | 55 | 223 | 0.0 | 3.0 | 0.00 | 0.00 | 0.00 | 69 | 1010.9 |
| 20260505070130 | 55 | 223 | 2.0 | 3.0 | 0.00 | 0.00 | 0.00 | 69 | 1010.9 |
| 20260505065541 | 56 | 235 | 2.0 | 3.0 | 0.00 | 0.00 | 0.00 | 68 | 1011.0 |
| 20260505065026 | 56 | 246 | 1.0 | 2.0 | 0.00 | 0.00 | 0.00 | 66 | 1011.0 |
| 20260505064618 | 57 | 157 | 0.0 | 1.0 | 0.00 | 0.00 | 0.00 | 64 | 1010.8 |
| 20260505064057 | 57 | 157 | 0.0 | 2.0 | 0.00 | 0.00 | 0.00 | 64 | 1010.7 |
| 20260505063557 | 57 | 157 | 0.0 | 2.0 | 0.00 | 0.00 | 0.00 | 63 | 1010.7 |
| 20260505063118 | 58 | 157 | 0.0 | 2.0 | 0.00 | 0.00 | 0.00 | 64 | 1010.7 |
| 20260505062517 | 58 | 157 | 0.0 | 2.0 | 0.00 | 0.00 | 0.00 | 62 | 1010.7 |
| 20260505062036 | 58 | 157 | 1.0 | 3.0 | 0.00 | 0.00 | 0.00 | 61 | 1010.7 |
| 20260505061550 | 57 | 157 | 2.0 | 4.0 | 0.00 | 0.00 | 0.00 | 61 | 1010.8 |
| 20260505061019 | 57 | 250 | 2.0 | 3.0 | 0.00 | 0.00 | 0.00 | 64 | 1010.7 |
| 20260505060519 | 58 | 129 | 1.0 | 3.0 | 0.00 | 0.00 | 0.00 | 63 | 1010.8 |
| 20260505060131 | 58 | 240 | 1.0 | 3.0 | 0.00 | 0.00 | 0.00 | 62 | 1010.7 |
| 20260505055531 | 58 | 321 | 0.0 | 3.0 | 0.00 | 0.00 | 0.00 | 61 | 1010.8 |
| 20260505055029 | 58 | 256 | 2.0 | 3.0 | 0.00 | 0.00 | 0.00 | 60 | 1010.7 |
| 20260505054612 | 59 | 257 | 0.0 | 4.0 | 0.00 | 0.00 | 0.00 | 60 | 1010.8 |
| 20260505054047 | 59 | 269 | 1.0 | 4.0 | 0.00 | 0.00 | 0.00 | 59 | 1010.8 |
| 20260505053522 | 59 | 262 | 1.0 | 4.0 | 0.00 | 0.00 | 0.00 | 60 | 1010.9 |
| 20260505053114 | 60 | 265 | 2.0 | 4.0 | 0.00 | 0.00 | 0.00 | 58 | 1010.8 |
| 20260505052609 | 60 | 237 | 2.0 | 6.0 | 0.00 | 0.00 | 0.00 | 58 | 1010.8 |
| 20260505052044 | 60 | 271 | 3.0 | 7.0 | 0.00 | 0.00 | 0.00 | 57 | 1010.8 |
| 20260505051620 | 60 | 252 | 3.0 | 9.0 | 0.00 | 0.00 | 0.00 | 57 | 1010.9 |
| 20260505051056 | 60 | 267 | 3.0 | 9.0 | 0.00 | 0.00 | 0.00 | 57 | 1011.0 |
| 20260505050545 | 60 | 247 | 4.0 | 7.0 | 0.00 | 0.00 | 0.00 | 58 | 1010.9 |
| 20260505050118 | 59 | 301 | 2.0 | 6.0 | 0.00 | 0.00 | 0.00 | 59 | 1010.9 |
| 20260505041606 | 63 | 127 | 0.0 | 5.0 | 0.00 | 0.00 | 0.00 | 54 | 1010.8 |
| 20260505041041 | 63 | 309 | 2.0 | 6.0 | 0.00 | 0.00 | 0.00 | 53 | 1010.9 |
| 20260505040611 | 63 | 270 | 3.0 | 7.0 | 0.00 | 0.00 | 0.00 | 51 | 1010.9 |
| 20260505040107 | 64 | 238 | 2.0 | 7.0 | 0.00 | 0.00 | 0.00 | 52 | 1010.9 |
| 20260505035540 | 64 | 296 | 2.0 | 7.0 | 0.00 | 0.00 | 0.00 | 53 | 1010.9 |
| 20260505035019 | 64 | 269 | 2.0 | 6.0 | 0.00 | 0.00 | 0.00 | 53 | 1011.0 |
| 20260505034611 | 64 | 298 | 2.0 | 6.0 | 0.00 | 0.00 | 0.00 | 51 | 1011.0 |
| 20260505034048 | 65 | 294 | 2.0 | 5.0 | 0.00 | 0.00 | 0.00 | 50 | 1011.0 |
| 20260505033611 | 65 | 290 | 2.0 | 5.0 | 0.00 | 0.00 | 0.00 | 50 | 1011.1 |
| 20260505033109 | 66 | 279 | 1.0 | 5.0 | 0.00 | 0.00 | 0.00 | 51 | 1011.1 |
| 20260505032535 | 67 | 325 | 2.0 | 5.0 | 0.00 | 0.00 | 0.00 | 47 | 1011.1 |
| 20260505032100 | 68 | 296 | 1.0 | 4.0 | 0.00 | 0.00 | 0.00 | 46 | 1011.0 |
| 20260505031600 | 69 | 279 | 1.0 | 3.0 | 0.00 | 0.00 | 0.00 | 47 | 1011.1 |
| 20260505031050 | 69 | 272 | 0.0 | 4.0 | 0.00 | 0.00 | 0.00 | 45 | 1011.2 |
| 20260505030526 | 69 | 263 | 2.0 | 4.0 | 0.00 | 0.00 | 0.00 | 45 | 1011.2 |
| 20260505030052 | 69 | 250 | 1.0 | 6.0 | 0.00 | 0.00 | 0.00 | 46 | 1011.1 |
| 20260505025523 | 69 | 269 | 3.0 | 6.0 | 0.00 | 0.00 | 0.00 | 46 | 1011.1 |
| 20260505025021 | 69 | 267 | 1.0 | 4.0 | 0.00 | 0.00 | 0.00 | 46 | 1011.1 |
| 20260505024609 | 69 | 283 | 1.0 | 4.0 | 0.00 | 0.00 | 0.00 | 46 | 1011.3 |
| 20260505024049 | 69 | 281 | 1.0 | 4.0 | 0.00 | 0.00 | 0.00 | 45 | 1011.3 |
| 20260505023535 | 69 | 319 | 2.0 | 4.0 | 0.00 | 0.00 | 0.00 | 44 | 1011.4 |
| 20260505023111 | 69 | 315 | 1.0 | 7.0 | 0.00 | 0.00 | 0.00 | 45 | 1011.5 |
| 20260505022553 | 69 | 271 | 3.0 | 7.0 | 0.00 | 0.00 | 0.00 | 45 | 1011.6 |
| 20260505022108 | 69 | 230 | 1.0 | 7.0 | 0.00 | 0.00 | 0.00 | 45 | 1011.7 |
| 20260505021623 | 68 | 319 | 2.0 | 8.0 | 0.00 | 0.00 | 0.00 | 46 | 1011.8 |
| 20260505021027 | 68 | 274 | 3.0 | 9.0 | 0.00 | 0.00 | 0.00 | 46 | 1011.7 |
| 20260505020548 | 68 | 24 | 4.0 | 9.0 | 0.00 | 0.00 | 0.00 | 46 | 1011.8 |
| 20260505020129 | 68 | 336 | 3.0 | 10.0 | 0.00 | 0.00 | 0.00 | 46 | 1011.9 |
| 20260505015543 | 69 | 352 | 3.0 | 10.0 | 0.00 | 0.00 | 0.00 | 46 | 1011.9 |
| 20260505015040 | 70 | 285 | 1.0 | 4.0 | 0.00 | 0.00 | 0.00 | 45 | 1012.0 |
| 20260505014619 | 69 | 107 | 2.0 | 8.0 | 0.00 | 0.00 | 0.00 | 47 | 1012.0 |